CAPE
4 6 1 0 11 24 82 54 1 1 2 2 3 9 21 15 0 0 0 0 0 0 0 0 0 0 0 0 0 0 0 0 0 0 0 0 0 0 0 0 0 0 0 0 0 0 0 0 0 0 0 0 0 0
5 3 0 0 1 22 66 61 2 2 2 2 4 8 21 24 2 0 0 0 0 0 0 0 0 0 0 0 0 0 0 0 0 0 0 0 0 0 0 0 0 0 0 0 0 0 0 0 0 0 0 0 0 0
9 9 1 1 1 9 35 62 13 2 2 2 4 8 9 12 5 0 0 0 0 0 0 0 0 0 0 0 0 0 0 0 0 0 0 0 0 0 0 0 0 0 0 0 0 0 0 0 0 0 0 0 0 0
14 19 2 2 1 5 0 15 4 1 2 3 4 7 13 10 1 0 0 0 0 0 0 0 0 0 0 0 0 0 0 0 0 0 0 0 0 0 0 0 0 0 0 0 0 0 0 0 0 0 0 0 0 0
9 13 8 0 0 9 1 0 1 2 2 2 4 5 10 2 0 0 0 0 0 0 0 0 0 0 0 0 0 0 0 0 0 0 0 0 0 0 0 0 0 0 0 0 0 0 0 0 0 0 0 0 0 0
11 7 2 0 0 6 0 2 3 2 2 3 4 10 2 2 0 0 0 0 0 0 0 0 0 0 1 0 0 1 2 1 0 1 0 0 0 0 0 0 0 0 0 0 0 0 0 0 0 0 0 0 0 0
10 14 2 0 2 6 0 3 5 2 1 3 6 2 2 0 1 0 0 0 0 0 0 0 0 0 1 3 2 3 0 3 0 2 1 0 0 1 0 0 0 0 0 0 0 0 0 0 0 0 0 0 0 0
14 14 2 3 2 9 6 5 7 2 1 3 3 2 2 0 0 0 0 0 0 0 0 0 0 0 0 0 1 4 0 1 1 1 1 0 0 1 0 0 0 0 0 0 0 0 0 0 0 0 0 0 0 0
14 5 1 4 3 13 3 3 2 2 1 2 2 3 0 0 0 0 0 0 0 0 0 0 0 0 0 0 0 2 1 0 0 1 2 0 0 0 0 0 0 0 0 0 0 0 0 0 0 0 0 0 0 0
7 4 2 2 10 21 3 2 1 1 1 3 0 0 0 0 0 0 0 0 0 0 0 0 0 0 0 0 1 0 0 0 0 0 0 0 0 0 0 0 0 0 0 0 0 0 0 0 0 0 0 0 0 0
9 2 1 0 47 48 29 5 1 2 0 0 0 0 0 0 0 0 0 0 0 0 0 0 0 0 0 0 0 0 0 0 0 0 0 0 0 0 0 0 0 0 0 0 0 0 0 0 0 0 0 0 0 0
5 3 1 2 44 62 15 2 1 0 0 0 0 0 0 0 0 0 0 0 0 0 0 0 0 0 0 0 0 0 0 0 0 0 0 0 0 0 0 0 0 0 0 0 0 0 0 0 0 0 0 0 0 0
5 3 2 2 0 3 1 1 0 1 0 0 0 0 0 0 0 0 0 0 0 0 0 0 0 0 0 0 0 0 0 0 0 0 0 0 0 0 0 0 0 0 0 0 0 0 0 0 0 0 0 0 0 0
3 1 3 2 1 26 3 0 0 0 0 0 0 0 0 0 0 0 0 0 0 0 0 0 0 0 0 0 0 0 0 0 0 0 0 0 0 0 0 0 0 0 0 0 0 0 0 0 0 0 0 0 0 0
5 2 2 0 0 3 2 0 0 0 0 0 0 0 0 0 0 0 0 0 0 0 0 0 0 0 0 0 0 0 0 0 0 0 0 0 0 0 0 0 0 0 0 0 0 0 0 0 0 0 0 0 0 0
1 2 0 0 1 1 1 0 0 0 0 0 0 0 0 0 0 0 0 0 0 0 0 0 0 0 0 0 0 0 0 0 0 0 0 0 0 0 0 0 0 0 0 0 0 0 0 0 0 0 0 0 0 0
3 0 0 1 3 4 3 0 0 0 0 0 0 0 0 0 0 0 0 0 0 0 0 0 0 0 0 0 0 0 0 0 0 0 0 0 0 0 0 0 0 0 0 0 0 0 0 0 0 0 0 0 0 0
1 0 0 1 4 4 0 0 0 0 0 0 0 0 0 0 0 0 0 0 0 0 0 0 0 0 0 0 0 0 0 0 0 0 0 0 0 0 0 0 0 0 0 0 0 0 0 0 0 0 0 0 0 0
1 0 0 5 1 0 0 0 0 0 0 0 0 0 0 0 0 0 0 0 0 0 0 0 0 0 0 0 0 0 0 0 0 0 0 0 0 0 0 0 0 0 0 0 0 0 0 0 0 0 0 0 0 0
0 0 7 0 0 0 0 0 0 0 0 0 0 0 0 0 0 0 0 0 0 0 0 0 0 0 0 0 0 0 0 0 0 0 0 0 0 0 0 0 0 0 0 0 0 0 0 0 0 0 0 0 0 0
0 0 4 0 0 0 0 0 0 0 0 0 0 0 0 0 0 0 0 0 0 0 0 0 0 0 0 0 0 0 0 0 0 0 0 0 0 0 0 0 0 0 0 0 0 0 0 0 0 0 0 0 0 0
0 2 0 0 0 0 0 0 0 0 0 0 0 0 0 0 0 0 0 0 0 0 0 0 0 0 0 0 0 0 0 0 0 0 0 0 0 0 0 0 0 0 0 0 0 0 0 0 0 0 0 0 0 0
1 0 0 0 0 0 0 0 0 0 0 0 0 0 0 0 0 0 0 0 0 0 0 0 0 0 0 0 0 0 0 0 0 0 0 0 0 0 0 0 0 0 0 0 0 0 0 0 0 0 0 0 0 0
0 0 0 0 0 0 0 0 0 0 0 0 0 0 0 0 0 0 0 0 0 0 0 0 0 0 0 0 0 0 0 0 0 0 0 0 0 0 0 0 0 0 0 0 0 0 0 0 0 0 0 0 0 0
0 0 0 0 0 0 0 0 0 0 0 0 0 0 0 0 0 0 0 0 0 0 0 0 0 0 0 0 0 0 0 0 0 0 0 0 0 0 0 0 0 0 0 0 0 0 0 0 0 0 0 0 0 0
0 0 0 0 0 0 0 0 0 0 0 0 0 0 0 0 0 0 0 0 0 0 0 0 0 0 0 0 0 0 0 0 0 0 0 0 0 0 0 0 0 0 0 0 0 0 0 0 0 0 0 0 0 0
0 0 0 0 0 0 0 0 0 0 0 0 0 0 0 0 0 0 0 0 0 0 0 0 0 0 0 0 0 0 0 0 0 0 0 0 0 0 0 0 0 0 0 0 0 0 0 0 0 0 0 0 0 0
0 0 0 0 0 0 0 0 0 0 0 0 0 0 0 0 0 0 0 0 0 0 0 0 0 0 0 0 0 0 0 0 0 0 0 0 0 0 0 0 0 0 0 0 0 0 0 0 0 0 0 0 0 0
0 0 0 0 0 0 0 0 0 0 0 0 0 0 0 0 0 0 0 0 0 0 0 0 0 0 0 0 0 0 0 0 0 0 0 0 0 0 0 0 0 0 0 0 0 0 0 0 0 0 0 0 0 0
0 0 0 0 0 0 0 0 0 0 0 0 0 0 0 0 0 0 0 0 0 0 0 0 0 0 0 0 0 0 0 0 0 0 0 0 0 0 0 0 0 0 0 0 0 0 0 0 0 0 0 0 0 0
0 0 0 0 0 0 0 0 0 0 0 0 0 0 0 0 0 0 0 0 0 0 0 0 0 0 0 0 0 0 0 0 0 0 0 0 0 0 0 0 0 0 0 0 0 0 0 0 0 0 0 0 0 0
0 0 0 0 0 0 0 0 0 0 0 0 0 0 0 0 0 0 0 0 0 0 0 0 0 0 0 0 0 0 0 0 0 0 0 0 0 0 0 0 0 0 0 0 0 0 0 0 0 0 0 0 0 0
0 0 0 0 0 0 0 0 0 0 0 0 0 0 0 0 0 0 0 0 0 0 0 0 0 0 0 0 0 0 0 0 0 0 0 0 0 0 0 0 0 0 0 0 0 0 0 0 0 0 0 0 0 0
CIN
-9 -4 -6 0 0 -1 -2 -7 0 0 0 0 0 0 0 0 -3 0 0 0 0 0 0 0 0 0 0 0 0 0 0 0 0 0 0 0 0 0 0 0 0 0 0 0 0 0 0 0 0 0 0 0 0 0
0 -1 0 0 0 -2 0 -9 -24 0 0 0 0 0 0 0 -9 -1 0 0 0 0 0 0 0 0 0 0 0 0 0 0 0 0 0 0 0 0 0 0 0 0 0 0 0 0 0 0 0 0 0 0 0 0
-1 -1 -1 0 0 0 -3 -1 -20 0 0 0 0 0 0 0 -2 0 0 0 0 0 0 0 0 0 0 0 0 0 0 0 0 0 0 0 0 0 0 0 0 0 0 0 0 0 0 0 0 0 0 0 0 0
-2 -2 -2 0 0 0 0 -5 -28 0 0 0 0 0 0 0 -2 0 0 0 0 0 0 0 0 0 0 0 0 0 0 0 0 0 0 0 0 0 0 0 0 0 0 0 0 0 0 0 0 0 0 0 0 0
-2 0 -1 0 0 0 -3 -1 -15 0 0 0 0 0 0 0 0 0 0 0 0 0 0 0 0 0 0 0 0 0 0 0 0 0 0 0 0 0 0 0 0 0 0 0 0 0 0 0 0 0 0 0 0 0
0 0 0 0 -1 0 -1 -3 -15 0 0 0 0 0 0 0 0 0 0 0 0 0 0 0 0 0 0 -1 0 -2 0 -1 0 0 0 0 0 0 0 0 0 0 0 0 0 0 0 0 0 0 0 0 0 0
-1 0 0 0 -1 0 0 -3 -9 0 0 0 0 0 0 0 -1 0 0 0 0 0 0 0 0 0 -1 -1 -2 0 0 0 0 0 0 0 0 0 0 0 0 0 0 0 0 0 0 0 0 0 0 0 0 0
-1 0 0 0 -1 0 -1 -1 -9 0 0 0 0 0 0 0 0 0 0 0 0 0 0 0 0 0 -1 0 0 0 0 0 0 0 -1 0 -1 0 0 0 0 0 0 0 0 0 0 0 0 0 0 0 0 0
0 -2 0 -2 -1 0 -2 -2 -7 0 0 0 0 0 0 0 0 0 0 0 0 0 0 0 0 0 0 0 0 0 0 0 0 0 0 0 0 0 0 0 0 0 0 0 0 0 0 0 0 0 0 0 0 0
0 0 0 -3 -1 0 -1 -1 -10 0 0 0 0 0 0 0 0 0 0 0 0 0 0 0 0 0 0 0 0 0 0 0 0 0 0 0 0 0 0 0 0 0 0 0 0 0 0 0 0 0 0 0 0 0
0 0 0 0 0 -1 -3 -8 0 0 0 0 0 0 0 0 0 0 0 0 0 0 0 0 0 0 0 0 0 0 0 0 0 0 0 0 0 0 0 0 0 0 0 0 0 0 0 0 0 0 0 0 0 0
0 0 0 0 -2 -5 -17 0 0 0 0 0 0 0 0 0 0 0 0 0 0 0 0 0 0 0 0 0 0 0 0 0 0 0 0 0 0 0 0 0 0 0 0 0 0 0 0 0 0 0 0 0 0 0
0 0 0 0 0 -36 -1 0 0 0 0 0 0 0 0 0 0 0 0 0 0 0 0 0 0 0 0 0 0 0 0 0 0 0 0 0 0 0 0 0 0 0 0 0 0 0 0 0 0 0 0 0 0 0
0 0 0 0 0 -5 0 0 0 0 0 0 0 0 0 0 0 0 0 0 0 0 0 0 0 0 0 0 0 0 0 0 0 0 0 0 0 0 0 0 0 0 0 0 0 0 0 0 0 0 0 0 0 0
0 0 0 0 0 0 0 0 0 0 0 0 0 0 0 0 0 0 0 0 0 0 0 0 0 0 0 0 0 0 0 0 0 0 0 0 0 0 0 0 0 0 0 0 0 0 0 0 0 0 0 0 0 0
0 0 0 0 0 0 0 0 0 0 0 0 0 0 0 0 0 0 0 0 0 0 0 0 0 0 0 0 0 0 0 0 0 0 0 0 0 0 0 0 0 0 0 0 0 0 0 0 0 0 0 0 0 0
0 0 0 0 0 0 0 0 0 0 0 0 0 0 0 0 0 0 0 0 0 0 0 0 0 0 0 0 0 0 0 0 0 0 0 0 0 0 0 0 0 0 0 0 0 0 0 0 0 0 0 0 0 0
0 0 0 0 0 0 0 0 0 0 0 0 0 0 0 0 0 0 0 0 0 0 0 0 0 0 0 0 0 0 0 0 0 0 0 0 0 0 0 0 0 0 0 0 0 0 0 0 0 0 0 0 0 0
0 0 0 0 0 0 0 0 0 0 0 0 0 0 0 0 0 0 0 0 0 0 0 0 0 0 0 0 0 0 0 0 0 0 0 0 0 0 0 0 0 0 0 0 0 0 0 0 0 0 0 0 0 0
0 0 0 0 0 0 0 0 0 0 0 0 0 0 0 0 0 0 0 0 0 0 0 0 0 0 0 0 0 0 0 0 0 0 0 0 0 0 0 0 0 0 0 0 0 0 0 0 0 0 0 0 0 0
0 0 0 0 0 0 0 0 0 0 0 0 0 0 0 0 0 0 0 0 0 0 0 0 0 0 0 0 0 0 0 0 0 0 0 0 0 0 0 0 0 0 0 0 0 0 0 0 0 0 0 0 0 0
0 0 0 0 0 0 0 0 0 0 0 0 0 0 0 0 0 0 0 0 0 0 0 0 0 0 0 0 0 0 0 0 0 0 0 0 0 0 0 0 0 0 0 0 0 0 0 0 0 0 0 0 0 0
0 0 0 0 0 0 0 0 0 0 0 0 0 0 0 0 0 0 0 0 0 0 0 0 0 0 0 0 0 0 0 0 0 0 0 0 0 0 0 0 0 0 0 0 0 0 0 0 0 0 0 0 0 0
0 0 0 0 0 0 0 0 0 0 0 0 0 0 0 0 0 0 0 0 0 0 0 0 0 0 0 0 0 0 0 0 0 0 0 0 0 0 0 0 0 0 0 0 0 0 0 0 0 0 0 0 0 0
0 0 0 0 0 0 0 0 0 0 0 0 0 0 0 0 0 0 0 0 0 0 0 0 0 0 0 0 0 0 0 0 0 0 0 0 0 0 0 0 0 0 0 0 0 0 0 0 0 0 0 0 0 0
0 0 0 0 0 0 0 0 0 0 0 0 0 0 0 0 0 0 0 0 0 0 0 0 0 0 0 0 0 0 0 0 0 0 0 0 0 0 0 0 0 0 0 0 0 0 0 0 0 0 0 0 0 0
0 0 0 0 0 0 0 0 0 0 0 0 0 0 0 0 0 0 0 0 0 0 0 0 0 0 0 0 0 0 0 0 0 0 0 0 0 0 0 0 0 0 0 0 0 0 0 0 0 0 0 0 0 0
0 0 0 0 0 0 0 0 0 0 0 0 0 0 0 0 0 0 0 0 0 0 0 0 0 0 0 0 0 0 0 0 0 0 0 0 0 0 0 0 0 0 0 0 0 0 0 0 0 0 0 0 0 0
0 0 0 0 0 0 0 0 0 0 0 0 0 0 0 0 0 0 0 0 0 0 0 0 0 0 0 0 0 0 0 0 0 0 0 0 0 0 0 0 0 0 0 0 0 0 0 0 0 0 0 0 0 0
0 0 0 0 0 0 0 0 0 0 0 0 0 0 0 0 0 0 0 0 0 0 0 0 0 0 0 0 0 0 0 0 0 0 0 0 0 0 0 0 0 0 0 0 0 0 0 0 0 0 0 0 0 0
0 0 0 0 0 0 0 0 0 0 0 0 0 0 0 0 0 0 0 0 0 0 0 0 0 0 0 0 0 0 0 0 0 0 0 0 0 0 0 0 0 0 0 0 0 0 0 0 0 0 0 0 0 0
0 0 0 0 0 0 0 0 0 0 0 0 0 0 0 0 0 0 0 0 0 0 0 0 0 0 0 0 0 0 0 0 0 0 0 0 0 0 0 0 0 0 0 0 0 0 0 0 0 0 0 0 0 0
0 0 0 0 0 0 0 0 0 0 0 0 0 0 0 0 0 0 0 0 0 0 0 0 0 0 0 0 0 0 0 0 0 0 0 0 0 0 0 0 0 0 0 0 0 0 0 0 0 0 0 0 0 0
Wind_Speed
44 44 45 45 46 44 42 40 38 37 36 36 29 29 27 30 26 18 15 16 16 14 11 11 11 10 10 9 11 12 15 14 15 16 17 17 17 19 20 17 23 24 22 22 20 20 20 21 17 13 14 15 13 15
47 47 47 46 44 43 41 40 37 35 36 34 31 29 28 28 27 19 18 15 13 12 13 12 11 12 10 11 11 10 13 13 13 14 12 14 15 17 21 27 17 24 21 20 21 21 19 20 16 17 17 17 16 17
47 46 47 45 44 41 39 38 36 36 35 35 34 30 29 31 29 20 16 12 13 11 14 11 11 11 11 11 11 9 10 10 10 10 10 11 10 12 6 17 25 25 24 25 24 19 19 20 21 19 17 16 15 16
47 47 46 46 44 41 39 38 35 34 36 35 30 27 27 28 28 18 18 16 14 11 15 13 12 11 11 12 12 12 11 12 11 9 8 7 8 8 8 15 21 23 22 24 26 27 26 21 19 17 16 16 16 15
45 46 47 49 47 41 39 37 34 33 35 36 33 29 27 28 24 18 16 20 20 17 13 12 11 10 11 11 11 11 11 11 10 8 8 7 8 7 9 11 15 17 19 25 23 16 19 18 16 16 15 15 16 17
45 44 46 50 49 43 39 37 33 33 33 35 33 31 29 25 22 17 19 29 22 13 13 13 13 9 10 11 10 11 12 12 11 9 8 9 10 10 10 11 13 15 17 19 20 20 18 17 18 17 17 17 17 18
46 44 45 50 49 43 39 37 33 32 33 32 31 31 32 27 23 20 19 20 16 13 15 15 16 12 11 10 10 10 11 12 12 11 10 10 11 12 11 10 12 14 17 19 19 21 22 23 22 19 18 17 17 17
46 45 44 49 49 44 40 36 34 31 31 32 32 31 30 25 17 21 15 11 16 14 16 17 15 12 10 10 9 9 10 12 12 13 13 12 13 14 13 13 13 14 16 18 21 22 21 20 20 19 18 18 18 17
44 44 43 47 49 44 39 36 34 31 29 31 34 30 21 24 26 23 9 11 15 17 17 16 15 15 10 12 11 10 10 11 8 15 15 14 14 15 14 14 16 17 18 16 18 21 21 21 20 19 18 17 16 17
44 43 40 44 47 43 39 36 33 32 34 39 32 28 27 26 15 12 15 19 21 25 22 21 14 14 10 10 9 9 12 12 11 10 16 16 15 17 16 17 17 18 21 20 19 19 19 18 17 17 17 15 16 17
42 41 37 39 45 41 36 33 34 43 42 35 30 25 19 21 17 20 23 23 25 27 26 22 18 12 16 11 8 13 11 14 14 10 8 17 16 17 17 19 21 20 21 21 20 19 17 16 17 17 17 16 16 15
41 40 38 37 40 38 35 39 50 42 38 33 27 23 20 19 21 25 28 28 30 32 23 20 19 15 13 14 12 12 12 13 16 13 15 19 20 18 15 16 17 19 19 20 19 17 17 17 18 18 18 18 17 15
42 41 40 37 37 36 40 51 41 37 32 26 25 24 28 24 30 34 40 39 34 25 20 14 15 15 14 15 13 13 10 11 14 14 16 14 14 6 10 12 13 14 15 16 15 15 15 16 16 16 16 16 17 16
42 42 40 39 40 35 51 44 44 38 32 30 30 33 32 34 42 38 37 35 29 19 9 14 13 15 13 15 14 14 15 15 13 12 15 16 3 5 7 7 8 10 12 12 12 13 13 14 14 14 14 15 16 17
41 42 40 41 41 49 47 46 44 40 32 31 29 42 39 33 32 33 24 22 27 16 11 12 13 13 14 14 15 10 13 18 6 13 15 14 4 3 4 4 5 6 7 8 9 9 9 10 11 12 13 14 14 15
37 37 44 44 37 51 48 45 40 35 30 29 33 37 35 36 34 33 31 21 13 19 16 15 16 18 22 10 9 7 15 22 20 17 17 11 3 2 1 1 3 4 5 6 7 7 8 8 9 10 10 11 12 12
37 38 43 43 48 51 46 39 37 34 36 35 38 35 32 35 37 34 31 27 18 21 22 20 19 22 13 19 16 9 6 20 19 16 14 8 3 2 0 1 2 2 3 4 5 6 7 8 8 8 7 8 9 9
37 36 38 44 54 50 40 36 32 33 38 39 38 37 34 32 32 32 29 25 25 23 24 25 16 22 21 16 24 19 16 13 14 9 5 2 2 1 0 1 2 2 2 3 4 6 6 6 6 6 6 6 7 7
33 34 40 55 51 42 35 37 29 36 36 35 30 29 30 30 28 26 26 28 27 23 18 23 24 26 25 23 25 4 11 9 7 2 4 4 2 1 1 2 1 2 2 2 3 4 5 5 7 5 4 4 4 5
29 32 54 50 43 37 32 32 25 29 39 35 31 30 29 29 27 27 27 31 28 26 25 28 28 21 20 17 15 16 10 11 7 6 6 3 2 5 4 5 4 4 3 3 4 5 6 7 7 4 3 3 4 4
30 45 49 44 37 28 26 30 29 28 31 33 31 29 28 27 28 32 35 33 34 33 30 25 24 18 15 13 13 16 4 6 7 6 10 10 13 10 8 7 7 5 4 4 2 1 2 3 4 4 3 4 6 7
35 48 41 38 33 26 26 27 29 25 29 31 29 27 28 30 30 31 30 38 38 36 27 24 22 19 17 13 11 15 11 3 6 7 6 10 12 11 11 10 9 10 9 6 4 3 3 1 1 1 2 3 5 6
40 40 41 34 31 26 31 28 31 29 31 33 29 29 29 29 30 27 34 38 38 34 28 26 22 18 16 15 14 15 10 6 5 5 7 9 10 10 10 10 10 9 8 6 4 2 2 2 2 1 1 2 3 6
39 39 38 38 30 30 31 33 30 30 28 30 32 32 31 29 30 33 39 36 37 30 30 24 19 16 16 15 14 13 10 13 8 6 2 7 8 8 9 10 9 8 7 6 4 3 4 4 3 3 3 3 4 5
38 39 34 37 32 33 35 38 37 34 35 32 31 31 32 29 35 38 39 37 35 34 30 27 23 19 14 13 12 12 10 9 8 3 1 2 4 6 6 7 8 8 8 6 6 4 4 4 5 6 6 6 6 6
38 35 35 38 38 37 38 40 39 36 34 31 30 26 27 33 37 39 39 35 33 32 31 28 23 20 22 19 14 13 11 12 10 8 3 2 4 5 5 5 5 5 7 6 5 6 5 6 6 8 9 8 7 6
34 36 31 30 32 33 34 31 32 33 32 31 32 29 29 34 40 35 28 27 29 28 29 30 29 25 23 18 18 15 14 10 12 12 12 3 2 0 1 2 2 3 5 7 6 6 7 7 7 7 7 6 7 7
28 33 40 36 34 32 34 33 32 33 32 28 26 31 31 34 35 28 26 25 28 29 30 29 28 26 25 22 20 16 13 12 12 11 11 12 9 4 4 6 8 5 3 5 6 6 6 7 7 7 7 8 8 8
30 31 33 33 32 30 31 32 30 28 26 27 27 26 28 25 23 24 22 25 27 28 28 27 25 23 21 19 17 19 16 12 11 12 12 12 12 9 4 4 5 4 4 2 2 3 5 6 7 8 7 7 8 8
31 28 32 30 32 32 29 25 25 24 23 21 20 19 20 20 18 18 18 20 23 24 24 24 24 22 20 19 19 19 19 18 18 17 16 16 16 16 11 6 6 4 6 6 5 5 5 5 6 7 7 8 9 11
30 28 29 27 27 26 26 23 21 20 20 20 20 21 21 21 20 17 17 19 20 20 20 20 20 20 20 21 21 20 20 20 21 19 18 18 18 17 15 10 8 7 7 7 8 8 8 7 8 8 9 10 11 12
30 29 29 28 26 24 22 21 20 20 20 20 20 19 19 19 21 20 19 19 19 18 17 18 20 22 23 24 24 24 25 25 24 21 20 20 19 17 14 12 10 9 9 10 10 10 9 10 10 10 11 12 13 13
28 25 24 23 24 26 22 20 20 20 18 19 19 19 20 20 20 19 18 17 18 18 17 18 20 22 22 22 23 23 23 21 19 18 17 16 15 15 14 12 10 9 10 10 10 11 10 11 12 12 13 12 12 12
Wind_Direction
244 245 245 245 242 241 239 237 232 228 222 219 212 206 203 201 197 212 246 257 268 288 313 318 337 360 12 24 27 41 34 38 39 30 27 23 12 1 349 349 321 284 272 266 258 269 258 297 299 300 271 265 280 308
242 245 242 243 242 239 238 234 231 226 220 215 210 202 199 200 193 205 241 253 272 286 308 314 338 350 8 26 32 49 39 48 57 43 43 31 12 1 343 317 337 272 267 270 264 246 278 295 289 281 274 277 290 301
241 242 240 240 240 236 236 233 228 223 220 217 216 208 195 187 185 207 229 225 256 279 298 314 326 339 359 6 19 45 46 81 76 71 53 42 26 29 36 221 259 257 262 262 261 263 267 266 277 288 275 261 264 288
239 238 238 237 238 234 233 233 226 220 217 214 203 192 191 189 184 198 227 229 246 278 286 311 322 336 350 356 13 31 51 79 87 78 69 62 57 97 168 215 230 236 261 257 244 241 251 271 281 281 280 282 290 283
238 236 236 235 234 232 230 228 224 218 214 213 207 190 183 175 186 217 234 236 247 261 298 305 322 331 337 341 14 39 59 90 100 99 92 84 100 128 160 196 200 177 189 218 232 293 267 270 279 275 281 293 303 307
235 234 235 232 230 229 227 226 221 215 212 212 207 195 185 177 186 208 242 241 242 258 284 311 320 322 322 330 7 34 47 90 118 113 115 114 123 131 143 162 180 159 169 173 205 255 260 260 257 262 273 290 298 309
231 233 234 228 225 226 225 224 217 210 207 203 192 186 185 174 187 218 252 246 218 250 273 293 301 311 306 313 334 24 54 110 151 151 145 140 132 132 134 147 166 174 176 177 176 190 206 209 219 225 236 257 267 277
229 230 231 224 221 222 222 220 215 204 202 197 187 177 180 176 206 239 272 221 218 243 268 281 293 300 291 304 322 349 36 96 137 176 169 164 152 149 139 155 153 176 207 190 182 179 188 198 207 213 233 246 255 263
225 225 227 222 217 218 218 217 212 198 190 175 167 158 170 216 224 231 244 223 235 250 261 272 274 278 282 286 297 321 351 51 217 170 176 164 154 154 154 152 144 150 159 192 186 181 190 199 212 209 205 208 195 205
221 222 223 218 213 213 214 212 202 186 166 154 164 203 215 218 178 185 239 238 244 252 259 263 267 273 274 279 294 314 315 328 73 134 213 178 186 196 183 167 153 149 153 153 156 162 167 175 174 167 166 168 165 150
216 216 217 215 209 207 206 200 182 158 157 192 204 214 197 166 216 239 236 236 243 251 250 250 254 258 262 275 290 289 309 303 311 353 12 197 194 164 145 149 158 147 139 140 141 140 142 148 147 133 126 121 107 87
213 212 212 212 203 201 195 168 159 180 198 197 190 182 194 215 236 234 231 237 239 240 245 237 241 252 258 267 284 287 301 299 297 312 307 237 200 146 100 100 119 136 135 134 132 120 112 109 108 104 98 93 88 81
210 209 211 209 199 197 175 163 176 167 161 165 188 212 213 229 227 227 223 226 231 235 233 231 230 245 256 263 277 287 301 300 298 297 299 309 298 3 84 77 77 86 106 119 121 111 96 87 86 83 85 77 81 79
208 208 210 206 202 183 166 169 164 172 184 210 210 208 222 227 225 225 226 223 228 233 199 205 229 248 255 252 271 280 286 293 298 300 295 298 346 95 92 64 59 80 87 87 92 97 87 81 79 69 70 80 84 93
207 209 208 202 203 172 169 168 174 187 208 216 219 220 224 229 229 225 227 227 229 202 185 209 235 258 247 263 269 289 291 284 291 292 293 292 290 127 116 80 48 58 70 69 72 86 75 68 71 64 69 79 82 89
206 208 206 203 201 171 168 173 191 209 218 222 227 222 228 225 225 223 220 218 205 185 199 230 241 247 246 266 277 236 281 275 283 280 286 291 255 199 165 29 13 28 48 49 54 51 47 54 59 57 61 65 76 82
204 206 205 204 186 171 170 186 204 217 221 225 226 229 231 228 222 221 220 218 189 179 212 236 239 241 257 259 272 163 202 277 286 286 291 289 224 192 202 355 2 32 39 42 28 28 30 34 36 45 55 62 62 60
206 206 207 194 171 176 194 207 212 218 222 223 225 223 228 228 222 220 219 202 202 215 224 234 244 243 250 267 258 178 171 285 295 309 325 98 134 181 204 88 47 68 79 41 27 22 23 27 28 28 43 57 54 51
206 207 200 165 175 188 202 209 221 218 222 222 227 226 228 225 226 220 214 203 218 225 232 235 245 243 248 254 248 85 145 145 131 51 330 311 295 197 327 357 63 61 95 40 25 16 11 9 359 15 25 42 31 35
206 204 173 171 182 196 207 211 221 219 215 218 219 221 223 223 224 216 207 214 216 225 237 236 239 252 254 264 273 270 117 119 95 86 103 89 87 115 116 119 110 98 86 29 1 352 347 341 340 357 9 4 6 357
197 186 174 183 195 206 214 211 216 221 212 215 212 220 222 220 220 216 214 218 221 228 234 241 241 251 264 268 269 264 315 101 100 84 122 126 133 126 122 118 119 120 130 131 120 22 349 333 327 324 329 338 338 341
196 185 188 194 202 213 216 219 211 213 219 212 216 221 219 219 219 218 219 219 226 228 238 240 241 246 252 265 272 264 266 333 333 344 58 107 127 131 138 137 135 143 146 150 150 158 156 52 16 335 321 335 348 348
185 188 190 198 205 216 210 213 215 218 215 214 218 221 225 224 221 218 222 226 229 232 237 240 241 247 252 260 262 264 266 292 325 3 90 106 115 115 120 132 134 137 147 148 130 108 146 124 128 148 325 331 335 332
183 191 198 203 211 212 208 212 213 212 216 217 219 221 222 224 219 225 226 229 229 232 230 235 235 240 251 256 262 261 266 272 297 317 35 110 117 118 122 128 130 130 134 127 132 134 147 164 169 190 221 260 294 303
190 199 206 206 211 208 208 207 210 214 215 218 218 222 220 223 223 228 231 230 229 229 229 231 235 240 239 246 256 262 268 269 282 328 82 69 79 82 85 91 120 131 131 129 154 164 173 181 192 210 220 237 253 269
194 203 206 205 206 208 208 209 212 213 209 218 224 225 228 227 227 234 234 233 233 231 228 228 230 234 242 249 254 261 263 265 279 294 294 154 137 122 111 106 111 144 159 160 159 168 179 193 200 200 210 223 232 247
202 201 207 208 206 205 206 210 205 210 216 223 221 224 226 229 229 234 240 239 233 234 235 236 238 237 243 246 258 266 271 262 278 282 294 231 230 226 68 44 79 43 125 163 168 177 183 186 196 207 217 237 238 243
206 204 198 200 204 209 206 205 212 216 221 222 217 227 229 234 233 239 242 241 239 241 240 242 243 246 250 253 255 260 270 271 282 294 297 296 299 295 313 343 2 34 70 153 175 181 192 197 200 210 223 235 253 262
204 202 201 199 202 206 208 213 220 224 223 217 226 233 234 241 246 244 249 249 246 241 238 237 241 248 252 253 257 261 259 257 263 271 276 286 297 301 265 301 330 349 357 14 188 209 211 215 217 219 241 263 276 282
200 204 202 204 207 212 218 224 221 221 225 230 236 239 243 245 251 257 258 250 239 237 238 240 244 247 247 249 251 257 261 266 273 276 280 286 298 310 314 302 307 316 325 327 318 318 315 299 302 299 286 291 294 297
205 205 204 211 214 217 216 217 220 224 230 236 242 240 240 240 246 257 259 254 247 244 242 244 248 253 252 253 254 256 260 269 273 282 289 295 303 307 311 314 315 318 318 321 319 314 311 300 289 288 289 288 287 290
205 208 209 209 209 210 216 221 224 227 229 233 241 244 241 242 242 248 257 253 244 245 250 253 253 253 258 260 262 265 268 270 275 282 289 295 301 309 314 316 317 317 316 316 317 314 311 307 303 299 297 297 299 301
205 208 207 207 210 215 220 222 225 227 233 238 244 248 243 243 240 246 252 257 251 253 257 261 261 261 263 266 268 271 275 279 284 289 295 302 309 313 318 323 323 323 321 320 319 316 313 312 311 311 313 313 312 313